• In Österreich
  • Länderverzeichnis
  • Für 7 Tage
  • Wassertemperatur
  • Satellitenkarten
  • Wetterkarte
  • News
  • Widgets
  • user-avatar
    Anmelden

    Stündliche Wetter Luksor

    Heute, 23 Juni, Samstag

    Zeit Temperatur Niederschläge Wind Luftdruck Luftfeuchtigkeit
    00:00 +40°C° 0 mm 3 m/S 749 mmHg 13%
    01:00 +39°C° 0 mm 2 m/S 749 mmHg 13%
    02:00 +38°C° 0 mm 2 m/S 748 mmHg 13%
    03:00 +38°C° 0 mm 2 m/S 748 mmHg 13%
    04:00 +37°C° 0 mm 2 m/S 749 mmHg 14%
    05:00 +37°C° 0 mm 2 m/S 749 mmHg 14%
    06:00 +38°C° 0 mm 3 m/S 749 mmHg 13%
    07:00 +41°C° 0 mm 4 m/S 749 mmHg 12%
    08:00 +43°C° 0 mm 5 m/S 749 mmHg 11%
    09:00 +45°C° 0 mm 5 m/S 749 mmHg 11%
    10:00 +46°C° 0 mm 6 m/S 749 mmHg 10%
    11:00 +47°C° 0 mm 6 m/S 749 mmHg 9%
    12:00 +49°C° 0 mm 7 m/S 748 mmHg 9%
    13:00 +50°C° 0 mm 7 m/S 748 mmHg 9%
    14:00 +50°C° 0 mm 7 m/S 747 mmHg 9%
    15:00 +50°C° 0 mm 8 m/S 747 mmHg 10%
    16:00 +49°C° 0 mm 8 m/S 747 mmHg 10%
    17:00 +49°C° 0 mm 8 m/S 746 mmHg 11%
    18:00 +46°C° 0 mm 8 m/S 746 mmHg 12%
    19:00 +45°C° 0 mm 8 m/S 747 mmHg 14%
    20:00 +44°C° 0 mm 7 m/S 747 mmHg 15%
    21:00 +43°C° 0 mm 7 m/S 747 mmHg 17%
    22:00 +41°C° 0 mm 7 m/S 748 mmHg 18%
    23:00 +40°C° 0 mm 7 m/S 748 mmHg 19%

    Morgen, 24 Juni, Sonntag

    Zeit Temperatur Niederschläge Wind Luftdruck Luftfeuchtigkeit
    00:00 +39°C° 0 mm 7 m/S 748 mmHg 20%
    01:00 +39°C° 0 mm 7 m/S 748 mmHg 21%
    02:00 +38°C° 0 mm 7 m/S 748 mmHg 22%
    03:00 +36°C° 0 mm 6 m/S 748 mmHg 25%
    04:00 +35°C° 0 mm 6 m/S 748 mmHg 28%
    05:00 +35°C° 0 mm 6 m/S 748 mmHg 31%
    06:00 +36°C° 0 mm 7 m/S 748 mmHg 27%
    07:00 +38°C° 0 mm 8 m/S 748 mmHg 23%
    08:00 +39°C° 0 mm 9 m/S 748 mmHg 19%
    09:00 +40°C° 0 mm 9 m/S 748 mmHg 17%
    10:00 +43°C° 0 mm 9 m/S 748 mmHg 15%
    11:00 +44°C° 0 mm 9 m/S 748 mmHg 12%
    12:00 +45°C° 0 mm 9 m/S 748 mmHg 12%
    13:00 +47°C° 0 mm 9 m/S 747 mmHg 11%
    14:00 +48°C° 0 mm 9 m/S 747 mmHg 10%
    15:00 +47°C° 0 mm 9 m/S 746 mmHg 11%
    16:00 +47°C° 0 mm 10 m/S 746 mmHg 11%
    17:00 +45°C° 0 mm 10 m/S 746 mmHg 11%
    18:00 +44°C° 0 mm 9 m/S 746 mmHg 12%
    19:00 +42°C° 0 mm 9 m/S 746 mmHg 12%
    20:00 +40°C° 0 mm 8 m/S 747 mmHg 13%
    21:00 +39°C° 0 mm 8 m/S 747 mmHg 14%
    22:00 +39°C° 0 mm 8 m/S 747 mmHg 15%
    23:00 +38°C° 0 mm 7 m/S 748 mmHg 16%

    übermorgen, 25 Juni, Montag

    Zeit Temperatur Niederschläge Wind Luftdruck Luftfeuchtigkeit
    00:00 +36°C° 0 mm 7 m/S 747 mmHg 17%
    01:00 +36°C° 0 mm 7 m/S 747 mmHg 18%
    02:00 +35°C° 0 mm 6 m/S 747 mmHg 19%
    03:00 +34°C° 0 mm 6 m/S 747 mmHg 21%
    04:00 +34°C° 0 mm 5 m/S 747 mmHg 23%
    05:00 +33°C° 0 mm 5 m/S 747 mmHg 25%
    06:00 +34°C° 0 mm 6 m/S 747 mmHg 22%
    07:00 +36°C° 0 mm 7 m/S 747 mmHg 19%
    08:00 +38°C° 0 mm 9 m/S 747 mmHg 17%
    09:00 +40°C° 0 mm 9 m/S 747 mmHg 14%
    10:00 +41°C° 0 mm 8 m/S 747 mmHg 12%
    11:00 +44°C° 0 mm 8 m/S 747 mmHg 10%
    12:00 +45°C° 0 mm 8 m/S 746 mmHg 9%
    13:00 +46°C° 0 mm 8 m/S 746 mmHg 9%
    14:00 +46°C° 0 mm 8 m/S 745 mmHg 8%
    15:00 +46°C° 0 mm 8 m/S 745 mmHg 9%
    16:00 +45°C° 0 mm 9 m/S 745 mmHg 9%
    17:00 +45°C° 0 mm 9 m/S 745 mmHg 10%
    18:00 +44°C° 0 mm 8 m/S 745 mmHg 10%
    19:00 +41°C° 0 mm 7 m/S 746 mmHg 11%
    20:00 +40°C° 0 mm 7 m/S 746 mmHg 12%
    21:00 +39°C° 0 mm 6 m/S 746 mmHg 12%
    22:00 +38°C° 0 mm 6 m/S 746 mmHg 13%
    23:00 +37°C° 0 mm 5 m/S 747 mmHg 14%

    26 Juni, Dienstag

    Zeit Temperatur Niederschläge Wind Luftdruck Luftfeuchtigkeit
    00:00 +36°C° 0 mm 5 m/S 746 mmHg 15%
    01:00 +35°C° 0 mm 5 m/S 746 mmHg 16%
    02:00 +35°C° 0 mm 5 m/S 746 mmHg 17%
    03:00 +34°C° 0 mm 4 m/S 746 mmHg 19%
    04:00 +34°C° 0 mm 4 m/S 746 mmHg 21%
    05:00 +33°C° 0 mm 4 m/S 746 mmHg 22%
    06:00 +34°C° 0 mm 5 m/S 746 mmHg 21%
    07:00 +36°C° 0 mm 5 m/S 747 mmHg 20%
    08:00 +38°C° 0 mm 6 m/S 747 mmHg 19%
    09:00 +40°C° 0 mm 5 m/S 747 mmHg 17%
    10:00 +41°C° 0 mm 5 m/S 747 mmHg 14%
    11:00 +43°C° 0 mm 4 m/S 746 mmHg 12%
    12:00 +44°C° 0 mm 4 m/S 746 mmHg 11%
    13:00 +45°C° 0 mm 4 m/S 745 mmHg 9%
    14:00 +47°C° 0 mm 4 m/S 745 mmHg 8%
    15:00 +47°C° 0 mm 4 m/S 745 mmHg 7%
    16:00 +47°C° 0 mm 4 m/S 745 mmHg 7%
    17:00 +47°C° 0 mm 5 m/S 745 mmHg 7%
    18:00 +45°C° 0 mm 5 m/S 745 mmHg 7%
    19:00 +43°C° 0 mm 5 m/S 746 mmHg 7%
    20:00 +42°C° 0 mm 5 m/S 746 mmHg 8%
    21:00 +41°C° 0 mm 5 m/S 747 mmHg 9%
    22:00 +40°C° 0 mm 5 m/S 747 mmHg 10%
    23:00 +39°C° 0 mm 5 m/S 747 mmHg 11%

    27 Juni, Mittwoch

    Zeit Temperatur Niederschläge Wind Luftdruck Luftfeuchtigkeit
    00:00 +37°C° 0 mm 4 m/S 747 mmHg 12%
    01:00 +36°C° 0 mm 4 m/S 747 mmHg 14%
    02:00 +36°C° 0 mm 3 m/S 747 mmHg 15%
    03:00 +35°C° 0 mm 3 m/S 747 mmHg 16%
    04:00 +34°C° 0 mm 3 m/S 747 mmHg 17%
    05:00 +34°C° 0 mm 2 m/S 747 mmHg 17%
    06:00 +35°C° 0 mm 3 m/S 747 mmHg 16%
    07:00 +37°C° 0 mm 3 m/S 748 mmHg 15%
    08:00 +38°C° 0 mm 3 m/S 748 mmHg 14%
    09:00 +40°C° 0 mm 3 m/S 748 mmHg 12%
    10:00 +43°C° 0 mm 3 m/S 748 mmHg 11%
    11:00 +43°C° 0 mm 2 m/S 747 mmHg 9%
    12:00 +45°C° 0 mm 3 m/S 747 mmHg 8%
    13:00 +46°C° 0 mm 3 m/S 746 mmHg 7%
    14:00 +48°C° 0 mm 4 m/S 746 mmHg 5%
    15:00 +48°C° 0 mm 4 m/S 745 mmHg 5%
    16:00 +48°C° 0 mm 4 m/S 745 mmHg 5%
    17:00 +48°C° 0 mm 5 m/S 745 mmHg 5%
    18:00 +47°C° 0 mm 4 m/S 746 mmHg 5%
    19:00 +45°C° 0 mm 3 m/S 746 mmHg 6%
    20:00 +43°C° 0 mm 3 m/S 746 mmHg 7%
    21:00 +42°C° 0 mm 3 m/S 747 mmHg 8%
    22:00 +40°C° 0 mm 3 m/S 747 mmHg 9%
    23:00 +39°C° 0 mm 2 m/S 747 mmHg 11%

    28 Juni, Donnerstag

    Zeit Temperatur Niederschläge Wind Luftdruck Luftfeuchtigkeit
    00:00 +38°C° 0 mm 2 m/S 747 mmHg 11%
    01:00 +38°C° 0 mm 2 m/S 746 mmHg 11%
    02:00 +36°C° 0 mm 1 m/S 746 mmHg 11%
    03:00 +36°C° 0 mm 1 m/S 746 mmHg 12%
    04:00 +35°C° 0 mm 1 m/S 746 mmHg 12%
    05:00 +35°C° 0 mm 1 m/S 746 mmHg 12%
    06:00 +38°C° 0 mm 2 m/S 747 mmHg 11%
    07:00 +40°C° 0 mm 2 m/S 747 mmHg 10%
    08:00 +42°C° 0 mm 2 m/S 747 mmHg 9%
    09:00 +44°C° 0 mm 4 m/S 747 mmHg 8%
    10:00 +47°C° 0 mm 5 m/S 747 mmHg 8%
    11:00 +50°C° 0 mm 7 m/S 747 mmHg 8%
    12:00 +50°C° 0 mm 7 m/S 746 mmHg 7%
    13:00 +51°C° 0 mm 7 m/S 746 mmHg 7%
    14:00 +52°C° 0 mm 7 m/S 745 mmHg 7%
    15:00 +51°C° 0 mm 8 m/S 745 mmHg 7%
    16:00 +51°C° 0 mm 8 m/S 745 mmHg 7%
    17:00 +50°C° 0 mm 8 m/S 745 mmHg 7%
    18:00 +49°C° 0 mm 7 m/S 745 mmHg 9%
    19:00 +47°C° 0 mm 7 m/S 745 mmHg 10%
    20:00 +45°C° 0 mm 6 m/S 746 mmHg 11%
    21:00 +44°C° 0 mm 6 m/S 746 mmHg 12%
    22:00 +44°C° 0 mm 6 m/S 746 mmHg 13%
    23:00 +42°C° 0 mm 6 m/S 746 mmHg 14%
    Mehr zeigen